Home > Weather > Santa Rosa > Past weeks

Flag for U.S.A. Weather for the Past 2 Weeks in Santa Rosa, California, U.S.A.

Now
73 °F

Partly sunny.


Feels Like: 77 °F
Forecast: 48 / 76 °F
Wind: 13 mph from North

Location: Santa Rosa Sonoma County Airport

Current Time: Feb 14, 2016 at 1:13:39 PM

Latest Report: Feb 14, 2016 at 11:53 AM


Visibility: 10 mi

Pressure: 30.24 "Hg

Humidity: 48%

Dew point: 52 °F

Location of Santa RosaLocation

Historic Weather in Santa Rosa — Graph

°F

Santa Rosa Temperature Yesterday

Maximum temperature yesterday: 73 °F (at 2:53 PM)
Minimum temperature yesterday: 41 °F (at 6:53 AM)
Average temperature yesterday: 57 °F

High & Low Weather Summary for the Past Weeks

 TemperatureHumidityPressure
High74 °F (Feb 8, 2:53 PM)100% (Feb 4, 11:57 PM)30.43 "Hg (Feb 4, 11:57 PM)
Low36 °F (Feb 5, 5:53 AM)29% (Feb 1, 2:53 PM)29.74 "Hg (Jan 31, 1:53 PM)
Average52 °F75%30.20 "Hg
* Reported Jan 30 11:53 AM — Feb 14 11:53 AM, Santa Rosa, Weather by CustomWeather, © 2016

Note: Actual official high and low records may vary slightly from our data, if they occured in-between our weather recording intervals... More about our weather records

Advertising

Santa Rosa Weather History for the Previous 24 Hours

 ConditionsComfort  
Time TempWeatherWind HumidityBarometerVisibility
11:53 AM
Sun, Feb 14
73 °FPartly sunny.13 mph48%30.24 "Hg10 mi
10:53 AM69 °FSunny.15 mph55%30.27 "Hg10 mi
9:53 AM65 °FSunny.16 mph59%30.28 "Hg10 mi
8:53 AM61 °FSunny.9 mph65%30.29 "Hg10 mi
7:53 AM52 °FScattered clouds.5 mph77%30.26 "Hg10 mi
6:53 AM55 °FPassing clouds.6 mph67%30.26 "Hg10 mi
5:53 AM56 °FClear.7 mph67%30.24 "Hg10 mi
4:53 AM57 °FClear.12 mph60%30.25 "Hg10 mi
3:53 AM55 °FClear.10 mph59%30.25 "Hg10 mi
2:53 AM53 °FClear.6 mph61%30.26 "Hg10 mi
1:53 AM50 °FClear.5 mph68%30.26 "Hg10 mi
12:53 AM56 °FClear.No wind51%30.28 "Hg10 mi
11:53 PM
Sat, Feb 13
56 °FClear.5 mph53%30.25 "Hg10 mi
10:53 PM59 °FClear.7 mph48%30.26 "Hg10 mi
9:53 PM60 °FClear.9 mph46%30.27 "Hg10 mi
8:53 PM61 °FClear.12 mph48%30.24 "Hg10 mi
7:53 PM63 °FClear.15 mph45%30.22 "Hg10 mi
6:53 PM64 °FPassing clouds.9 mph45%30.20 "Hg10 mi
5:53 PM63 °FPassing clouds.3 mph65%30.18 "Hg10 mi
4:53 PM71 °FScattered clouds.6 mph53%30.16 "Hg10 mi
3:53 PM71 °FScattered clouds.7 mph53%30.16 "Hg9 mi
2:53 PM73 °FScattered clouds.3 mph41%30.16 "Hg10 mi
1:53 PM72 °FPassing clouds.5 mph44%30.18 "Hg10 mi
Weather by CustomWeather, © 2016

See weather overviewHow to use our weather pages